Location: Voyageurs National Park
(48.5020°N, 92.9292°W)
Time: 04:17:51
(UTC-06:00)

YAOGAN 1 - Pass Details

Date: 19 January 2018
Orbit: 619 x 621 km, 98.0° (Epoch: 21 February)

Event Time Altitude Azimuth Distance (km) Brightness Sun altitude
Rises 07:19:35 0° 12° (NNE) 2,911 5.9 -6.1°
Reaches altitude 10° 07:21:47 10° 10° (N) 2,000 5.0 -5.8°
Maximum altitude 07:26:07 74° 287° (WNW) 652 2.5 -5.1°
Drops below altitude 10° 07:30:25 10° 202° (SSW) 1,982 5.2 -4.5°
Sets 07:32:36 0° 201° (SSW) 2,883 6.1 -4.1°
